Vorticity
4 8 4 7 -11 -7 7 16 1 -16 7 18 6 1 20 2 -2 -2 18 6 6 4 7 5 7 7 6 7 7 7 7 7 7 7 8 8 8 8 8 8 6 6 5 6 7 8 9 7 6
7 6 9 13 -8 -5 26 6 -11 40 13 -20 4 14 56 -32 19 4 10 5 4 4 7 7 8 8 7 8 8 7 7 7 7 7 7 6 6 6 6 7 7 7 8 8 6 5 6 6 5
8 9 10 7 4 3 9 1 -25 7 35 -3 -18 15 -2 5 14 8 6 4 3 5 7 8 9 9 8 8 7 7 7 6 6 6 6 6 6 6 5 5 6 6 6 5 4 4 4 4 5
7 10 -9 2 20 -3 7 0 1 -0 1 28 6 -22 14 12 -6 14 6 3 4 5 8 9 9 9 8 8 7 7 6 6 6 6 7 6 6 6 6 7 7 7 8 7 8 8 9 9 9
6 7 -22 18 14 18 -1 16 25 4 -5 17 8 -23 7 -3 13 7 6 1 5 5 8 9 8 8 8 7 6 6 6 6 6 6 7 7 7 8 9 9 9 9 9 9 8 7 5 3 2
-2 9 -1 20 5 11 5 -16 25 10 11 4 13 31 1 5 10 10 4 2 5 6 6 7 7 7 6 6 6 7 7 8 7 7 8 8 7 6 6 5 4 4 4 4 3 3 3 2 2
-2 5 9 19 3 -21 15 33 -13 13 17 11 4 -1 12 -2 6 6 5 4 2 2 5 4 3 5 5 5 5 5 5 6 6 5 6 5 4 4 3 2 1 1 1 1 0 0 0 1 2
-9 5 4 3 26 28 18 20 -5 -5 2 0 5 13 -1 2 10 5 4 3 2 1 3 2 2 3 3 2 3 3 3 3 2 2 2 1 2 2 1 1 1 2 1 1 1 2 2 2 3
-2 -7 17 -1 -25 -3 -3 2 19 11 3 -0 4 1 9 9 6 15 -0 5 2 1 2 1 1 1 3 3 2 3 2 1 0 0 0 0 1 1 1 1 2 2 3 3 3 3 3 3 4
-17 4 3 -3 9 23 -5 15 7 -4 7 9 1 11 -5 0 12 9 6 4 3 1 2 1 -1 0 2 1 1 1 1 -0 0 -0 -1 1 2 -1 1 2 2 2 3 3 4 4 4 4 5
-25 22 1 8 3 9 10 9 16 10 2 8 6 5 -2 8 -7 17 8 12 7 3 1 1 -1 1 0 1 1 1 0 -0 -1 1 -0 2 2 -0 2 2 3 3 4 5 5 6 6 5 5
12 21 -3 35 0 28 -9 6 15 13 14 7 9 2 10 0 11 17 6 12 4 -5 8 0 -0 1 1 1 2 1 0 -0 -1 0 0 3 1 2 2 3 3 3 7 6 7 6 6 5 6
-22 10 3 2 9 30 9 6 11 9 4 13 13 20 5 4 7 15 9 5 9 -1 8 4 3 1 2 2 2 -0 -1 1 1 -1 -1 0 1 1 3 3 4 6 6 7 7 8 8 8 7
25 33 -13 3 28 3 -5 -6 1 10 11 11 1 19 11 4 4 14 7 3 8 8 2 10 2 1 3 4 2 2 1 0 1 1 0 1 1 2 2 3 6 5 6 7 8 7 6 5 5
-14 5 36 -13 -13 15 20 -26 1 10 5 5 14 3 15 17 -3 6 11 8 18 14 11 6 2 -2 -2 -0 0 2 2 2 2 1 1 1 2 2 2 5 8 5 5 6 6 5 4 5 6
31 3 2 -1 -11 -0 21 48 -2 8 8 7 9 1 3 10 18 13 -1 7 1 8 6 10 11 1 5 2 2 7 3 2 -0 4 3 2 2 2 5 8 6 4 3 4 5 4 3 4 5
1 25 -8 27 -24 -22 -16 7 -9 -3 -7 -0 3 8 3 -1 10 10 17 3 1 6 5 11 11 15 11 7 5 7 4 4 5 5 3 3 4 6 8 11 5 2 2 4 4 4 3 6 6
12 -33 8 25 52 14 13 1 30 -1 15 -1 12 3 8 7 -0 5 10 13 7 4 5 6 6 3 6 9 9 8 11 10 6 6 6 8 9 8 11 7 4 2 2 4 4 3 5 6 6
8 22 -10 0 9 3 28 27 -31 13 3 18 10 7 -1 10 3 1 2 10 10 4 4 4 5 8 6 5 7 5 5 8 7 9 10 13 13 17 9 5 3 2 3 3 4 5 5 5 4
17 13 14 12 18 17 6 23 23 14 -5 11 2 7 5 14 6 7 2 -1 9 11 7 3 3 3 6 7 9 8 11 11 19 14 18 19 20 11 6 4 3 3 3 4 5 4 4 5 5
12 12 3 2 5 -5 24 4 10 22 -5 4 2 -0 6 12 16 4 4 2 1 4 9 8 5 7 8 9 8 7 11 12 7 7 12 9 4 9 6 2 2 6 7 5 5 6 6 5 5
1 21 29 20 20 -5 10 7 22 28 12 11 -2 2 -1 12 14 7 8 5 1 0 0 3 8 3 7 9 8 4 9 9 16 8 1 -12 -3 -7 -1 4 0 -2 1 6 6 5 5 5 5
6 23 21 -3 2 -6 8 -1 44 -8 11 25 23 22 7 7 24 2 5 3 8 9 14 13 4 6 6 6 12 9 4 9 3 2 9 12 8 8 0 4 4 -13 -2 7 6 6 7 7 8
-7 10 20 21 0 9 -2 -10 16 30 7 14 7 15 18 23 24 21 5 -0 5 6 3 4 10 8 5 6 10 12 6 4 4 4 10 13 14 -1 6 8 25 6 7 8 8 8 9 10 9
11 9 2 3 11 4 30 27 -47 6 4 0 25 1 9 -1 17 31 25 -5 17 1 14 4 3 8 11 9 8 10 9 6 9 7 4 7 9 16 27 6 6 8 7 8 7 7 7 8 8
6 -3 -1 7 9 14 -2 16 0 32 1 -2 6 21 12 9 10 -1 20 7 22 11 3 4 -2 0 10 11 13 14 17 15 -10 7 12 -5 -12 -1 11 12 9 3 3 1 4 6 7 7 7
26 6 -8 -3 8 9 9 18 -11 6 14 10 4 -6 1 -5 5 8 2 5 10 19 13 8 16 17 20 17 21 17 14 26 36 13 15 13 19 4 2 5 -5 -2 3 9 7 7 8 8 9
-10 11 12 8 8 7 24 4 -15 -11 36 0 7 17 16 12 -6 20 -0 2 6 4 14 20 10 16 17 13 14 11 11 6 1 3 4 -1 -0 -9 -9 -13 11 8 8 8 10 11 10 10 10
1 14 -16 19 -22 8 7 19 23 17 8 18 9 7 25 33 23 13 20 12 9 9 17 13 21 5 10 3 -1 -14 10 5 5 2 3 0 10 32 9 2 2 6 8 10 11 11 11 12 12
22 1 4 -25 33 -10 8 19 10 27 21 14 1 13 17 14 15 15 13 16 13 6 16 16 20 15 -4 10 -19 46 10 14 11 -16 3 15 12 4 -0 -1 4 10 14 13 11 11 11 10 10
Height
3121 3125 3128 3134 3143 3140 3140 3143 3148 3149 3155 3155 3154 3157 3157 3159 3164 3169 3170 3172 3174 3176 3177 3179 3180 3181 3182 3184 3185 3186 3186 3187 3188 3189 3190 3191 3191 3192 3193 3194 3195 3196 3197 3197 3197 3198 3197 3197 3197
3115 3119 3125 3129 3133 3134 3136 3141 3147 3149 3150 3153 3154 3156 3158 3159 3161 3166 3168 3171 3174 3177 3178 3179 3180 3182 3183 3185 3186 3187 3188 3189 3190 3191 3192 3193 3193 3194 3195 3196 3197 3198 3198 3199 3199 3199 3199 3199 3199
3111 3116 3121 3124 3125 3127 3132 3138 3144 3146 3147 3151 3155 3158 3160 3163 3163 3165 3167 3170 3174 3177 3178 3180 3181 3182 3184 3186 3187 3188 3189 3190 3192 3193 3194 3195 3196 3196 3197 3198 3199 3200 3201 3201 3201 3200 3201 3201 3201
3105 3112 3117 3117 3118 3123 3131 3137 3141 3144 3146 3148 3152 3156 3159 3160 3163 3166 3166 3170 3174 3177 3179 3180 3182 3183 3185 3187 3188 3190 3191 3192 3193 3194 3196 3196 3197 3198 3199 3200 3201 3202 3202 3202 3202 3202 3203 3202 3203
3099 3106 3111 3113 3114 3122 3132 3134 3137 3140 3145 3146 3148 3156 3159 3160 3161 3166 3168 3171 3174 3177 3179 3181 3182 3184 3186 3187 3189 3191 3193 3194 3195 3196 3198 3198 3199 3200 3201 3202 3203 3204 3203 3204 3204 3205 3205 3205 3205
3094 3101 3107 3109 3114 3122 3128 3132 3135 3137 3143 3145 3148 3151 3158 3156 3159 3162 3166 3170 3174 3177 3179 3181 3183 3185 3186 3188 3190 3192 3194 3196 3197 3198 3199 3200 3201 3202 3203 3204 3205 3206 3206 3206 3207 3208 3208 3208 3207
3089 3096 3103 3108 3115 3121 3125 3132 3134 3136 3139 3143 3146 3151 3154 3155 3158 3160 3165 3169 3173 3176 3179 3181 3183 3185 3187 3189 3191 3193 3195 3197 3199 3200 3201 3202 3204 3204 3206 3207 3208 3208 3208 3209 3209 3210 3209 3209 3209
3089 3096 3101 3107 3114 3120 3124 3127 3131 3136 3138 3141 3144 3148 3153 3157 3158 3159 3165 3169 3173 3176 3179 3182 3184 3186 3188 3190 3192 3194 3196 3198 3200 3201 3203 3204 3205 3206 3207 3209 3210 3209 3210 3210 3210 3211 3210 3210 3210
3086 3093 3099 3105 3111 3118 3121 3126 3129 3132 3136 3139 3143 3149 3153 3156 3156 3158 3163 3168 3172 3175 3178 3181 3184 3185 3188 3190 3192 3194 3197 3199 3200 3202 3203 3205 3206 3207 3208 3209 3210 3210 3211 3210 3211 3211 3211 3210 3209
3078 3089 3098 3105 3109 3117 3120 3124 3127 3131 3134 3138 3142 3146 3150 3153 3157 3158 3162 3165 3169 3173 3176 3181 3183 3185 3187 3190 3192 3195 3197 3199 3201 3202 3203 3205 3206 3207 3208 3209 3210 3210 3210 3211 3211 3210 3210 3210 3209
3077 3087 3097 3102 3107 3115 3118 3123 3127 3129 3133 3137 3140 3144 3148 3152 3156 3157 3161 3164 3168 3172 3175 3178 3182 3185 3187 3190 3192 3195 3197 3199 3200 3202 3203 3205 3206 3206 3207 3208 3209 3209 3209 3209 3210 3210 3209 3209 3208
3081 3087 3094 3098 3103 3111 3115 3120 3125 3128 3131 3134 3138 3142 3146 3149 3153 3159 3159 3163 3167 3171 3175 3177 3180 3183 3187 3189 3191 3194 3196 3198 3199 3201 3202 3204 3205 3206 3206 3207 3207 3207 3208 3207 3207 3207 3207 3207 3206
3078 3087 3091 3096 3100 3108 3113 3118 3121 3125 3129 3132 3135 3138 3143 3146 3150 3154 3156 3161 3164 3168 3172 3175 3179 3182 3185 3188 3190 3192 3194 3196 3198 3199 3201 3203 3204 3204 3205 3205 3205 3205 3205 3206 3205 3205 3205 3205 3204
3081 3087 3091 3093 3101 3104 3111 3116 3117 3123 3127 3129 3133 3136 3139 3142 3147 3151 3153 3157 3161 3165 3170 3174 3177 3179 3182 3186 3188 3190 3191 3194 3196 3198 3198 3199 3201 3202 3203 3203 3204 3204 3203 3203 3202 3202 3201 3201 3201
3078 3084 3087 3095 3100 3105 3107 3112 3115 3123 3126 3127 3131 3134 3136 3140 3145 3148 3151 3156 3159 3163 3166 3170 3173 3176 3179 3182 3186 3187 3189 3191 3193 3195 3196 3197 3198 3199 3200 3200 3200 3200 3200 3200 3199 3199 3199 3198 3198
3081 3086 3090 3095 3099 3100 3105 3109 3113 3117 3123 3124 3127 3131 3135 3138 3141 3144 3148 3151 3156 3158 3162 3166 3170 3173 3176 3179 3181 3183 3185 3187 3189 3191 3193 3193 3194 3195 3196 3196 3197 3197 3197 3197 3197 3196 3195 3195 3194
3082 3083 3087 3093 3097 3100 3104 3104 3113 3118 3121 3122 3125 3128 3131 3135 3138 3141 3143 3147 3151 3155 3158 3161 3165 3169 3172 3175 3177 3179 3180 3182 3184 3185 3187 3189 3190 3190 3192 3193 3193 3193 3193 3193 3193 3192 3192 3191 3190
3080 3085 3092 3095 3098 3100 3099 3102 3111 3114 3114 3117 3122 3125 3128 3130 3134 3138 3140 3143 3146 3150 3154 3158 3162 3164 3167 3169 3171 3174 3175 3177 3177 3178 3180 3183 3185 3185 3187 3188 3189 3189 3189 3189 3188 3188 3187 3187 3185
3084 3088 3093 3096 3099 3102 3102 3103 3105 3108 3108 3112 3117 3120 3124 3127 3130 3133 3138 3140 3143 3146 3148 3153 3157 3161 3162 3164 3166 3168 3170 3172 3171 3173 3174 3177 3178 3179 3181 3182 3184 3184 3184 3184 3183 3183 3182 3181 3180
3082 3085 3090 3095 3098 3100 3097 3096 3095 3101 3105 3110 3114 3117 3120 3125 3125 3127 3132 3136 3139 3141 3144 3147 3151 3154 3157 3160 3161 3162 3164 3166 3167 3169 3170 3171 3172 3175 3176 3177 3179 3179 3179 3179 3179 3178 3176 3175 3174
3080 3084 3088 3090 3091 3093 3096 3098 3096 3099 3102 3105 3108 3111 3115 3118 3121 3121 3125 3129 3134 3137 3139 3142 3145 3149 3152 3154 3155 3157 3158 3160 3161 3163 3164 3166 3167 3168 3169 3170 3171 3174 3174 3174 3173 3172 3171 3169 3168
3080 3083 3086 3086 3088 3092 3095 3092 3090 3095 3096 3099 3101 3104 3107 3111 3114 3115 3119 3123 3126 3131 3135 3138 3140 3144 3146 3148 3150 3151 3153 3155 3157 3158 3159 3160 3163 3164 3163 3165 3165 3165 3167 3169 3167 3166 3165 3163 3162
3079 3079 3082 3085 3088 3089 3091 3092 3086 3090 3090 3091 3095 3098 3101 3102 3108 3109 3112 3117 3122 3125 3129 3132 3134 3136 3139 3141 3145 3146 3147 3150 3151 3153 3154 3155 3157 3158 3159 3160 3160 3162 3163 3162 3161 3160 3158 3156 3155
3077 3079 3081 3082 3084 3087 3085 3086 3079 3084 3086 3088 3090 3092 3094 3096 3100 3103 3106 3109 3112 3116 3119 3123 3126 3129 3132 3135 3138 3139 3142 3144 3146 3148 3149 3149 3151 3153 3153 3153 3153 3155 3156 3156 3155 3153 3151 3150 3148
3076 3077 3079 3084 3086 3083 3081 3083 3078 3081 3082 3083 3084 3086 3089 3092 3093 3096 3099 3102 3105 3108 3113 3116 3119 3122 3125 3127 3129 3132 3134 3137 3139 3141 3142 3143 3145 3147 3147 3147 3147 3148 3149 3148 3147 3146 3144 3143 3141
3072 3075 3076 3078 3081 3078 3079 3075 3072 3077 3079 3080 3082 3082 3084 3087 3088 3090 3093 3096 3098 3102 3105 3109 3113 3115 3118 3120 3122 3125 3125 3127 3128 3133 3134 3135 3136 3143 3143 3141 3141 3142 3141 3142 3140 3138 3136 3135 3133
3069 3070 3074 3072 3074 3075 3072 3071 3071 3071 3073 3076 3078 3080 3083 3082 3083 3086 3089 3091 3094 3096 3099 3101 3104 3107 3109 3112 3115 3118 3120 3122 3122 3128 3128 3129 3130 3134 3135 3134 3134 3135 3134 3133 3131 3129 3128 3126 3125
3063 3068 3071 3071 3072 3072 3066 3066 3065 3066 3069 3070 3071 3072 3074 3077 3080 3082 3084 3086 3089 3093 3094 3095 3098 3100 3103 3106 3108 3112 3115 3116 3119 3120 3121 3121 3122 3122 3123 3124 3125 3125 3125 3123 3121 3119 3118 3117 3116
3059 3061 3065 3067 3068 3067 3067 3064 3062 3063 3065 3066 3068 3070 3071 3073 3075 3078 3080 3081 3083 3085 3087 3089 3091 3095 3098 3099 3101 3103 3109 3109 3111 3111 3111 3112 3113 3114 3115 3117 3117 3116 3114 3113 3111 3109 3108 3107 3106
3053 3055 3058 3060 3062 3063 3062 3062 3060 3061 3062 3065 3067 3068 3069 3070 3071 3073 3075 3075 3076 3079 3081 3083 3086 3089 3091 3094 3095 3094 3094 3098 3100 3099 3101 3103 3107 3107 3107 3108 3108 3106 3105 3103 3101 3099 3098 3097 3096